Wind_Speed
28 28 31 32 35 49 61 63 39 62 56 56 58 51 39 39 54 31 30 28 29 33 35 35 33 33 31 26 28 33 36 37 41 35 36 33 35 36 37 36 32 29 33
13 21 29 25 29 50 45 53 90 33 48 55 57 61 46 26 32 27 26 30 36 37 37 37 36 35 36 34 34 38 42 42 44 46 41 40 36 39 41 37 34 32 32
19 13 18 30 26 39 37 31 62 54 54 55 57 59 54 31 29 29 34 41 43 39 41 42 43 39 40 41 41 44 46 45 45 48 46 42 41 40 42 38 34 34 35
17 14 10 7 21 36 10 23 31 52 29 40 48 49 38 30 31 35 39 42 40 42 45 44 44 44 45 45 48 47 46 46 46 46 47 44 45 43 43 40 37 35 36
25 15 10 9 10 11 10 12 14 31 25 22 25 30 31 36 37 36 37 39 45 46 46 45 46 48 51 51 50 47 45 47 46 47 47 42 47 42 45 38 36 33 35
31 27 16 15 5 7 7 11 17 19 18 22 19 25 27 30 33 38 46 44 43 45 46 49 55 54 55 54 50 46 45 46 46 45 46 46 47 48 44 40 38 37 37
27 29 27 26 22 16 19 7 3 8 12 17 17 25 24 29 34 35 38 41 43 45 47 49 51 53 53 54 52 47 46 45 45 46 47 47 45 42 41 40 39 39 40
22 21 18 13 11 11 12 10 9 4 4 6 10 11 19 23 27 32 32 36 39 40 41 42 46 48 48 49 51 51 48 46 45 45 48 46 46 42 43 40 42 41 44
19 17 16 15 13 12 10 7 6 8 8 6 7 7 14 19 23 30 32 36 39 42 43 43 43 43 41 43 48 49 48 48 43 44 45 45 41 45 45 44 46 44 46
18 17 16 16 16 15 13 11 12 13 13 11 12 11 11 13 15 19 20 25 29 32 34 36 37 38 37 37 41 44 45 41 40 38 39 41 37 45 47 47 45 49 48
18 20 19 16 14 14 15 15 14 15 16 17 18 18 18 20 21 21 21 23 24 24 26 29 33 36 36 37 38 39 42 39 38 38 42 44 42 46 45 52 43 49 55
18 16 17 19 18 16 15 16 16 17 17 17 18 19 19 20 22 24 26 27 29 31 32 35 35 34 34 37 36 37 38 35 33 41 42 43 47 51 47 49 51 46 48
20 20 18 16 16 18 17 16 15 16 16 17 17 18 19 19 21 23 27 29 31 34 36 37 37 39 38 33 35 37 43 44 46 46 43 49 49 42 48 48 49 51 52
21 21 21 21 20 19 20 20 20 19 19 19 19 19 20 21 21 22 23 24 26 27 30 34 36 36 37 36 39 46 42 45 47 50 49 48 39 44 48 43 50 52 49
22 22 22 22 21 22 22 21 21 21 21 21 22 22 21 22 23 24 25 26 27 28 29 31 32 33 32 36 39 42 46 46 47 47 50 51 51 47 46 50 53 50 60
25 24 23 22 23 23 23 25 25 24 23 23 23 22 24 24 25 26 26 26 26 28 30 31 33 32 30 29 33 38 41 45 46 48 50 47 49 51 54 48 50 59 54
23 24 25 24 24 23 23 22 22 23 24 24 24 24 23 24 24 25 25 25 24 24 25 28 32 32 30 27 27 31 34 37 42 45 49 48 51 49 47 46 48 51 46
23 23 23 23 24 23 23 23 23 23 22 22 23 22 22 22 23 23 23 23 22 23 23 24 25 29 27 26 24 24 26 28 33 38 44 44 48 51 48 53 48 50 47
23 23 22 22 23 23 23 23 23 24 24 22 22 23 23 24 24 23 24 24 24 23 22 21 21 23 25 24 22 21 19 18 18 23 27 29 35 40 43 46 47 49 49
25 25 24 23 23 22 22 22 23 23 23 23 22 22 21 21 21 21 21 22 22 22 21 19 19 19 20 22 22 20 18 14 11 10 12 12 16 21 25 31 35 37 39
26 26 26 25 25 24 24 23 23 23 23 23 24 24 24 23 23 22 22 20 19 19 19 18 18 17 17 17 17 17 16 15 11 8 6 4 2 6 11 14 18 20 23
26 26 26 26 26 25 25 25 25 25 24 24 24 23 23 23 23 23 22 22 21 19 17 16 16 15 14 14 13 12 13 13 9 7 4 5 4 3 5 7 9 11 12
25 26 26 27 27 26 26 25 25 25 25 25 24 24 24 23 23 22 22 22 21 21 19 18 16 15 13 11 10 9 7 5 7 7 4 1 2 4 6 6 7 9 10
24 25 26 26 27 27 27 27 27 26 26 26 26 26 25 24 23 23 23 22 21 21 20 19 18 16 15 14 12 10 7 5 3 2 3 3 3 4 5 7 10 11 13
23 24 25 25 26 27 27 27 27 28 27 27 26 26 26 26 25 24 23 23 23 22 20 19 19 18 16 14 13 12 11 10 8 4 2 1 2 2 4 6 7 8 8
23 24 25 25 26 26 27 27 27 28 28 28 27 27 26 26 26 25 25 24 23 22 21 20 19 18 17 15 13 11 10 9 9 9 10 9 5 3 3 5 5 6 7
Wind_Direction
250 256 234 238 233 228 225 230 228 201 205 214 217 221 223 224 222 228 239 245 256 261 260 259 265 266 269 272 269 267 276 278 276 274 272 274 277 277 279 286 281 270 279
205 240 232 233 220 223 226 198 220 200 210 214 219 219 212 199 216 232 247 262 260 256 252 257 259 263 268 272 272 273 274 276 275 273 272 271 270 274 277 276 277 272 277
82 163 222 222 216 219 214 191 214 212 180 202 213 221 232 234 234 246 249 249 249 245 253 258 258 256 262 270 275 275 276 275 272 272 275 267 267 268 272 274 275 276 275
55 99 111 165 189 247 239 216 205 220 201 215 222 229 239 235 231 232 237 243 247 255 259 260 259 260 266 270 271 272 274 274 272 270 271 265 265 263 268 272 273 266 268
36 65 84 104 118 189 171 188 196 227 223 199 190 196 214 223 228 233 239 247 262 266 267 264 268 269 272 272 273 273 270 271 271 269 268 268 258 263 266 271 271 262 264
25 33 58 50 59 63 171 165 167 185 200 188 207 207 223 233 242 248 251 260 263 264 262 262 268 269 270 270 269 268 267 268 270 268 268 262 259 262 265 268 265 259 261
16 19 26 30 20 28 24 16 296 256 245 238 224 222 239 246 248 255 262 266 267 268 267 266 266 265 264 265 266 266 264 265 268 268 265 263 260 259 262 262 261 260 260
20 22 29 34 24 32 23 22 26 20 335 293 285 271 261 261 263 262 261 264 265 266 268 269 268 266 263 264 263 263 263 263 267 267 266 264 259 254 256 259 259 258 257
12 13 16 18 17 20 21 20 341 360 11 335 320 317 278 268 268 269 267 266 267 267 268 273 276 273 268 260 258 257 259 260 263 265 262 257 250 258 253 254 256 255 255
0 5 8 9 5 359 360 357 352 356 348 343 337 329 314 310 288 280 281 271 269 269 270 271 276 278 275 268 264 261 258 259 262 267 265 256 250 250 252 254 253 252 248
358 353 355 358 355 352 348 349 342 342 340 333 329 329 327 322 319 314 307 303 298 297 290 286 284 282 279 271 264 261 260 257 258 261 267 257 245 249 251 257 253 260 252
343 346 343 340 341 344 342 339 334 334 329 324 322 323 322 322 321 320 324 325 319 314 307 303 299 290 279 266 260 249 265 253 257 259 253 254 250 249 249 251 264 249 251
337 333 332 331 330 327 324 323 322 318 312 308 306 306 309 314 321 325 323 322 319 313 308 304 298 292 291 272 260 251 254 252 249 257 263 260 253 250 252 251 258 252 253
336 334 332 330 328 324 320 317 315 313 311 312 310 309 312 313 315 316 315 320 318 318 312 308 300 291 281 270 256 252 256 256 259 260 257 257 257 246 248 250 248 258 240
332 332 331 329 326 324 323 323 321 318 316 315 317 318 316 315 316 320 320 319 320 323 323 318 311 298 283 270 265 260 257 260 259 258 260 259 257 251 248 250 246 242 244
326 326 325 324 323 323 322 321 320 322 323 322 320 320 322 323 321 320 320 319 320 320 322 331 327 317 301 286 271 263 262 258 260 262 256 249 248 252 252 247 236 246 238
324 322 323 323 322 321 319 319 320 320 319 320 322 321 320 320 318 318 317 318 319 323 326 330 335 334 323 309 295 280 269 264 260 259 251 249 244 252 243 244 240 238 241
334 331 328 326 324 323 321 319 317 315 313 313 313 313 314 314 313 316 319 323 324 318 321 327 336 342 341 332 320 307 289 279 270 256 244 245 245 251 239 241 232 236 244
344 339 336 333 330 328 325 323 321 318 317 317 317 317 318 318 316 317 319 320 320 322 327 330 336 342 349 352 345 334 320 305 292 280 263 253 241 237 230 231 235 248 239
359 356 351 347 341 336 333 329 326 323 321 320 317 315 315 316 313 311 314 318 321 323 326 331 333 342 346 354 356 357 347 343 332 308 288 267 250 238 234 232 230 228 231
6 4 2 360 356 352 347 342 336 333 330 327 325 323 321 320 319 319 320 322 322 323 325 327 329 333 337 341 351 358 3 356 3 4 352 339 253 242 238 232 231 230 227
8 6 5 3 1 359 357 355 350 346 341 337 335 333 330 328 325 324 323 322 321 320 320 322 325 323 326 329 335 346 350 352 7 9 22 48 57 92 149 166 179 191 197
4 3 3 2 1 359 358 355 353 351 349 347 343 338 335 332 330 328 326 324 322 319 318 317 316 318 320 318 320 325 325 330 340 351 354 54 130 156 154 159 167 177 183
0 359 358 358 356 355 354 353 352 351 349 348 346 345 343 340 337 334 331 329 325 322 318 315 311 309 311 314 316 311 309 305 270 195 183 184 179 182 184 182 185 186 186
355 354 353 352 351 350 349 348 348 347 346 345 343 342 341 341 340 338 334 331 329 327 323 319 313 309 306 305 308 312 318 321 318 300 263 234 213 193 184 178 175 171 171
345 344 344 344 343 342 341 341 340 340 340 340 340 339 338 336 335 334 334 332 329 327 325 322 317 313 308 303 299 299 302 306 314 321 327 329 312 263 211 194 187 184 183
Height
2953 2950 2952 2955 2961 2969 2968 2972 2960 2953 2974 3001 3011 3018 3028 3032 3017 3047 3053 3057 3053 3059 3064 3066 3066 3069 3069 3069 3070 3070 3071 3074 3071 3074 3077 3079 3078 3076 3078 3079 3080 3079 3081
2948 2949 2950 2948 2959 2966 2976 2959 2971 2962 2978 2993 3003 3009 3014 3012 3034 3038 3044 3047 3045 3050 3053 3055 3057 3059 3060 3061 3062 3062 3064 3066 3064 3062 3067 3069 3070 3070 3069 3071 3071 3071 3072
2946 2946 2949 2950 2955 2959 2967 2956 2951 2964 2957 2978 2991 2996 3002 3008 3019 3026 3029 3035 3038 3040 3042 3044 3047 3049 3049 3051 3052 3052 3052 3055 3054 3052 3054 3058 3058 3059 3058 3061 3063 3064 3065
2954 2948 2948 2949 2949 2956 2945 2944 2947 2960 2947 2970 2983 2991 2995 3004 3010 3017 3021 3028 3030 3031 3031 3033 3036 3038 3041 3042 3041 3041 3041 3041 3042 3041 3042 3046 3048 3048 3049 3051 3052 3055 3057
2958 2955 2954 2957 2954 2958 2959 2957 2955 2961 2963 2964 2971 2984 2995 3002 3004 3009 3013 3019 3019 3021 3021 3022 3025 3026 3026 3027 3028 3028 3029 3028 3029 3030 3030 3034 3033 3036 3040 3043 3042 3045 3047
2964 2960 2958 2958 2960 2960 2960 2962 2959 2964 2970 2967 2971 2980 2988 2994 2998 3003 3006 3005 3006 3007 3007 3009 3011 3011 3012 3013 3013 3014 3016 3015 3016 3018 3019 3020 3022 3027 3030 3032 3031 3034 3035
2968 2964 2962 2960 2963 2962 2962 2956 2956 2965 2969 2971 2971 2975 2979 2984 2989 2992 2990 2991 2992 2993 2993 2994 2996 2998 2998 2998 2999 3000 3002 3003 3004 3006 3005 3007 3010 3016 3020 3020 3022 3023 3025
2975 2974 2975 2974 2974 2971 2968 2969 2971 2973 2969 2971 2968 2967 2973 2976 2979 2981 2977 2979 2980 2982 2982 2981 2982 2983 2982 2982 2983 2984 2987 2990 2991 2994 2993 2996 2999 3003 3006 3010 3011 3012 3014
2981 2980 2977 2975 2974 2970 2968 2970 2970 2970 2966 2966 2966 2967 2970 2971 2970 2971 2969 2968 2969 2972 2971 2970 2969 2967 2965 2966 2965 2968 2971 2974 2979 2980 2982 2983 2986 2990 2995 2996 2998 3002 3002
2983 2980 2978 2974 2970 2970 2969 2968 2968 2965 2966 2965 2966 2964 2966 2963 2964 2958 2960 2961 2964 2963 2961 2958 2955 2952 2951 2953 2953 2956 2957 2962 2968 2968 2968 2971 2975 2979 2980 2983 2987 2989 2990
2984 2980 2976 2974 2973 2972 2970 2967 2967 2965 2961 2962 2962 2960 2956 2957 2952 2953 2953 2953 2952 2950 2949 2946 2942 2941 2941 2942 2944 2945 2947 2952 2955 2955 2958 2959 2963 2966 2968 2969 2975 2977 2977
2984 2982 2979 2976 2973 2970 2968 2967 2965 2961 2962 2962 2958 2956 2955 2953 2952 2951 2948 2944 2938 2934 2932 2931 2932 2933 2933 2932 2933 2936 2937 2940 2942 2942 2946 2948 2951 2954 2956 2958 2961 2965 2968
2982 2980 2978 2976 2973 2969 2967 2966 2963 2963 2963 2962 2959 2955 2953 2950 2946 2943 2939 2934 2930 2926 2926 2925 2924 2922 2921 2922 2923 2926 2928 2929 2930 2931 2934 2936 2940 2942 2945 2947 2947 2950 2956
2979 2976 2974 2971 2969 2967 2965 2962 2959 2958 2955 2950 2948 2946 2943 2942 2941 2940 2936 2932 2928 2924 2922 2918 2916 2913 2912 2912 2914 2916 2917 2917 2917 2919 2921 2924 2925 2928 2929 2930 2937 2940 2942
2979 2975 2972 2969 2967 2965 2962 2960 2957 2954 2950 2946 2944 2940 2939 2938 2935 2933 2930 2928 2924 2920 2917 2913 2910 2905 2903 2901 2901 2903 2904 2905 2905 2904 2906 2910 2912 2915 2914 2919 2922 2925 2926
2975 2973 2970 2967 2964 2961 2958 2954 2951 2950 2947 2944 2941 2939 2936 2935 2932 2929 2926 2923 2919 2915 2911 2907 2903 2898 2894 2890 2889 2889 2889 2890 2890 2890 2892 2894 2898 2901 2904 2903 2908 2911 2913
2973 2971 2968 2965 2962 2959 2956 2953 2950 2947 2944 2942 2940 2937 2934 2932 2929 2926 2923 2920 2915 2913 2907 2902 2898 2892 2887 2882 2878 2877 2875 2875 2875 2877 2879 2880 2884 2886 2889 2892 2896 2899 2901
2971 2968 2965 2963 2959 2956 2953 2950 2948 2946 2943 2940 2937 2935 2932 2929 2927 2924 2920 2916 2914 2909 2904 2899 2896 2892 2884 2879 2873 2869 2867 2865 2864 2864 2865 2867 2870 2873 2875 2878 2881 2886 2890
2969 2967 2963 2960 2956 2953 2950 2947 2944 2941 2939 2938 2936 2933 2930 2925 2922 2918 2914 2912 2908 2904 2900 2897 2893 2890 2885 2879 2872 2867 2864 2860 2857 2857 2855 2856 2858 2860 2862 2866 2870 2873 2876
2968 2965 2961 2957 2954 2951 2948 2944 2941 2939 2936 2934 2932 2930 2927 2923 2920 2916 2911 2906 2903 2902 2899 2895 2892 2886 2883 2879 2875 2869 2864 2861 2856 2854 2853 2853 2852 2852 2855 2857 2860 2863 2866
2969 2965 2961 2956 2952 2949 2945 2942 2939 2936 2933 2930 2927 2923 2920 2917 2915 2911 2908 2904 2901 2900 2897 2894 2890 2886 2883 2881 2876 2871 2868 2864 2859 2855 2854 2855 2852 2851 2852 2854 2856 2860 2862
2971 2966 2962 2958 2954 2949 2945 2941 2938 2934 2930 2927 2924 2920 2917 2914 2910 2908 2904 2900 2898 2897 2895 2892 2888 2886 2884 2880 2876 2873 2870 2867 2863 2861 2860 2857 2855 2855 2855 2855 2857 2859 2862
2972 2967 2963 2959 2955 2950 2946 2942 2938 2933 2929 2925 2921 2918 2914 2911 2908 2905 2901 2898 2897 2895 2892 2889 2887 2885 2882 2880 2877 2874 2872 2869 2867 2864 2862 2861 2860 2860 2860 2859 2859 2862 2863
2972 2968 2964 2959 2955 2950 2946 2942 2937 2933 2929 2925 2921 2917 2913 2909 2905 2901 2898 2897 2894 2891 2889 2886 2884 2882 2880 2878 2876 2874 2873 2871 2868 2866 2866 2864 2863 2862 2862 2861 2863 2864 2865
2971 2967 2963 2959 2955 2951 2946 2942 2937 2933 2928 2924 2920 2916 2911 2907 2903 2900 2897 2894 2891 2888 2885 2883 2881 2879 2876 2875 2873 2872 2870 2869 2868 2867 2865 2863 2862 2862 2862 2863 2863 2864 2865
2969 2965 2961 2957 2953 2949 2945 2940 2936 2931 2927 2923 2918 2914 2910 2906 2902 2898 2895 2891 2888 2885 2882 2880 2878 2876 2874 2872 2871 2869 2869 2868 2867 2866 2864 2862 2862 2862 2862 2863 2864 2864 2865